Location: Chin
(49.7667°N, 112.4500°W)
Time: 12:24:32
(UTC+00:00)

N. Korean satellite - Pass Details

Date: 04 December 2021
Orbit: 447 x 490 km, 97.3° (Epoch: 27 January)

Event Time Altitude Azimuth Distance (km) Brightness Sun altitude
Rises 12:38:42 0° 16° (NNE) 2,472 10.3 -23.4°
Reaches altitude 10° 12:40:46 10° 21° (NNE) 1,590 9.3 -23.1°
Maximum altitude 12:44:07 56° 100° (E) 541 7.0 -22.5°
Drops below altitude 10° 12:47:26 10° 180° (S) 1,571 9.2 -22.0°
Sets 12:49:29 0° 185° (S) 2,438 10.2 -21.7°
